Weather History for KDED - July, 2014

Change the Weather History Date:

Sunday, July 27, 2014

  Actual Average Record
Temperature  
Mean Temperature 83 °F -  
Max Temperature 91 °F 91 °F 96 °F (2013)
Min Temperature 75 °F 70 °F 75 °F (2013)
Cooling Degree Days 18    
Growing Degree Days 33 (Base 50)    
Moisture  
Dew Point 74 °F    
Average Humidity 77    
Maximum Humidity 100    
Minimum Humidity 55    
Precipitation  
Precipitation 0.00 in - - ()
Sea Level Pressure  
Sea Level Pressure 30.07 in    
Wind  
Wind Speed - (North)    
Max Wind Speed -    
Max Gust Speed -    
Visibility 10 miles    
Events      
Averages and records for this station are not official NWS values.
T = Trace of Precipitation, MM = Missing Value Source: NWS Daily Summary

Daily Weather History Graph

Daily Weather History Graph

Search for Another Location

Airport or City:

Trip Planner

Search our weather history database for the weather conditions in past years. The results will help you decide how hot, cold, wet, or windy it might be!

Date:

Astronomy

Jul. 27, 2014 Rise Set
Actual Time 6:42 AM EDT 8:20 PM EDT
Civil Twilight 6:17 AM EDT 8:45 PM EDT
Nautical Twilight 5:45 AM EDT 9:16 PM EDT
Astronomical Twilight 5:13 AM EDT 9:49 PM EDT
Moon 7:20 AM EDT (7/27) 8:39 PM EDT (7/27)
Length of Visible Light 14h 28m
Length of Day
13h 37m
New Moon, 0% of the Moon is Illuminated
Jul 27
New Moon
Aug 3
First Quarter
Aug 10
Full
Aug 17
Last Quarter
Aug 25
New

Hourly Weather History & Observations

Time (EDT) Temp. Heat Index Dew Point Humidity Pressure Visibility Wind Dir Wind Speed Gust Speed Precip Events Conditions
12:15 AM 77.0 °F - 73.4 °F 89% 30.09 in 10.0 mi North - - N/A   Clear
12:35 AM 77.0 °F - 73.4 °F 89% 30.09 in 10.0 mi North - - N/A   Clear
12:55 AM 77.0 °F - 73.4 °F 89% 30.09 in 10.0 mi North - - N/A   Clear
1:15 AM 77.0 °F - 73.4 °F 89% 30.09 in 10.0 mi North - - N/A   Clear
1:35 AM 77.0 °F - 73.4 °F 89% 30.08 in 10.0 mi North - - N/A   Clear
1:55 AM 77.0 °F - 73.4 °F 89% 30.07 in 10.0 mi North - - N/A   Clear
2:15 AM 77.0 °F - 73.4 °F 89% 30.07 in 10.0 mi North - - N/A   Clear
2:35 AM 75.2 °F - 73.4 °F 94% 30.07 in 10.0 mi North - - N/A   Clear
2:55 AM 77.0 °F - 73.4 °F 89% 30.07 in 10.0 mi North - - N/A   Clear
3:15 AM 75.2 °F - 73.4 °F 94% 30.07 in 10.0 mi North - - N/A   Clear
3:35 AM 75.2 °F - 73.4 °F 94% 30.06 in 10.0 mi North - - N/A   Clear
3:55 AM 75.2 °F - 73.4 °F 94% 30.07 in 10.0 mi North - - N/A   Clear
4:15 AM 75.2 °F - 73.4 °F 94% 30.07 in 10.0 mi North - - N/A   Clear
4:35 AM 75.2 °F - 73.4 °F 94% 30.07 in 10.0 mi North - - N/A   Clear
4:55 AM 75.2 °F - 73.4 °F 94% 30.07 in 10.0 mi North - - N/A   Clear
5:15 AM 75.2 °F - 73.4 °F 94% 30.07 in 10.0 mi North - - N/A   Clear
5:35 AM 75.2 °F - 73.4 °F 94% 30.07 in 10.0 mi North - - N/A   Clear
5:55 AM 75.2 °F - 73.4 °F 94% 30.07 in 10.0 mi North - - N/A   Clear
6:15 AM 77.0 °F - 75.2 °F 94% 30.07 in 10.0 mi North - - N/A   Clear
6:35 AM 75.2 °F - 75.2 °F 100% 30.07 in 10.0 mi North - - N/A   Clear
6:55 AM 75.2 °F - 75.2 °F 100% 30.08 in 10.0 mi North - - N/A   Partly Cloudy
7:15 AM 75.2 °F - 75.2 °F 100% 30.08 in 10.0 mi North - - N/A   Partly Cloudy
7:35 AM 77.0 °F - 75.2 °F 94% 30.08 in 10.0 mi North - - N/A   Clear
7:55 AM 77.0 °F - 75.2 °F 94% 30.10 in 10.0 mi North - - N/A   Clear
8:15 AM 78.8 °F - 75.2 °F 89% 30.10 in 10.0 mi North - - N/A   Clear
8:35 AM 80.6 °F 86.2 °F 75.2 °F 84% 30.10 in 10.0 mi North - - N/A   Scattered Clouds
8:55 AM 80.6 °F 86.2 °F 75.2 °F 84% 30.10 in 10.0 mi North - - N/A   Partly Cloudy
9:15 AM 82.4 °F 89.5 °F 75.2 °F 79% 30.10 in 10.0 mi North - - N/A   Clear
9:35 AM 84.2 °F 92.3 °F 75.2 °F 74% 30.10 in 10.0 mi North - - N/A   Clear
9:55 AM 84.2 °F 92.3 °F 75.2 °F 74% 30.10 in 10.0 mi North - - N/A   Clear
10:15 AM 86.0 °F 95.1 °F 75.2 °F 70% 30.10 in 10.0 mi North - - N/A   Partly Cloudy
10:35 AM 86.0 °F 95.1 °F 75.2 °F 70% 30.10 in 10.0 mi North - - N/A   Scattered Clouds
10:55 AM 86.0 °F 95.1 °F 75.2 °F 70% 30.10 in 10.0 mi North - - N/A   Mostly Cloudy
11:15 AM 87.8 °F 97.6 °F 75.2 °F 66% 30.11 in 10.0 mi North - - N/A   Scattered Clouds
11:35 AM 87.8 °F 97.6 °F 75.2 °F 66% 30.11 in 10.0 mi North - - N/A   Scattered Clouds
11:55 AM 89.6 °F 99.8 °F 75.2 °F 62% 30.10 in 10.0 mi North - - N/A   Partly Cloudy
12:15 PM 89.6 °F 99.8 °F 75.2 °F 62% 30.10 in 10.0 mi North - - N/A   Scattered Clouds
12:35 PM 89.6 °F 99.8 °F 75.2 °F 62% 30.10 in 10.0 mi North - - N/A   Mostly Cloudy
12:55 PM 86.0 °F 95.1 °F 75.2 °F 70% 30.09 in 10.0 mi North - - N/A   Scattered Clouds
1:15 PM 89.6 °F 99.8 °F 75.2 °F 62% 30.08 in 10.0 mi North - - N/A   Clear
1:35 PM 87.8 °F 95.6 °F 73.4 °F 62% 30.08 in 10.0 mi North - - N/A   Clear
2:15 PM 87.8 °F 95.6 °F 73.4 °F 62% 30.09 in 10.0 mi North - - N/A   Scattered Clouds
2:35 PM 78.8 °F - 73.4 °F 83% 30.07 in 3.0 mi North - - N/A   Mostly Cloudy
2:55 PM 82.4 °F 88.2 °F 73.4 °F 74% 30.07 in 10.0 mi North - - N/A   Scattered Clouds
3:15 PM 86.0 °F 95.1 °F 75.2 °F 70% 30.06 in 10.0 mi North - - N/A   Clear
3:35 PM 89.6 °F 99.8 °F 75.2 °F 62% 30.05 in 10.0 mi North - - N/A   Clear
3:55 PM 89.6 °F 99.8 °F 75.2 °F 62% 30.04 in 10.0 mi North - - N/A   Clear
4:15 PM 89.6 °F 99.8 °F 75.2 °F 62% 30.04 in 10.0 mi North - - N/A   Clear
4:35 PM 91.4 °F 102.5 °F 75.2 °F 59% 30.04 in 10.0 mi North - - N/A   Clear
4:55 PM 91.4 °F 102.5 °F 75.2 °F 59% 30.03 in 10.0 mi North - - N/A   Clear
5:15 PM 91.4 °F 102.5 °F 75.2 °F 59% 30.03 in 10.0 mi North - - N/A   Clear
5:35 PM 91.4 °F 100.1 °F 73.4 °F 55% 30.03 in 10.0 mi North - - N/A   Clear
5:55 PM 89.6 °F 98.2 °F 73.4 °F 59% 30.03 in 10.0 mi North - - N/A   Clear
6:15 PM 89.6 °F 98.2 °F 73.4 °F 59% 30.03 in 10.0 mi North - - N/A   Clear
6:35 PM 89.6 °F 98.2 °F 73.4 °F 59% 30.04 in 10.0 mi North - - N/A   Clear
6:55 PM 89.6 °F 98.2 °F 73.4 °F 59% 30.03 in 10.0 mi North - - N/A   Clear
7:15 PM 89.6 °F 98.2 °F 73.4 °F 59% 30.04 in 10.0 mi North - - N/A   Clear
7:35 PM 89.6 °F 98.2 °F 73.4 °F 59% 30.04 in 10.0 mi North - - N/A   Clear
7:55 PM 87.8 °F 95.6 °F 73.4 °F 62% 30.05 in 10.0 mi North - - N/A   Clear
8:15 PM 86.0 °F 93.4 °F 73.4 °F 66% 30.05 in 10.0 mi North - - N/A   Clear
8:35 PM 86.0 °F 93.4 °F 73.4 °F 66% 30.05 in 10.0 mi North - - N/A   Clear
8:55 PM 84.2 °F 90.9 °F 73.4 °F 70% 30.05 in 10.0 mi North - - N/A   Clear
9:15 PM 84.2 °F 92.3 °F 75.2 °F 74% 30.05 in 10.0 mi North - - N/A   Clear
9:35 PM 84.2 °F 90.9 °F 73.4 °F 70% 30.05 in 10.0 mi North - - N/A   Clear
9:55 PM 84.2 °F 92.3 °F 75.2 °F 74% 30.06 in 10.0 mi North - - N/A   Clear
10:15 PM 82.4 °F 89.5 °F 75.2 °F 79% 30.06 in 10.0 mi North - - N/A   Clear
10:35 PM 82.4 °F 89.5 °F 75.2 °F 79% 30.07 in 10.0 mi North - - N/A   Clear
10:55 PM 82.4 °F 89.5 °F 75.2 °F 79% 30.06 in 10.0 mi North - - N/A   Clear
11:15 PM 82.4 °F 89.5 °F 75.2 °F 79% 30.06 in 10.0 mi North - - N/A   Clear
11:35 PM 80.6 °F 86.2 °F 75.2 °F 84% 30.06 in 10.0 mi North - - N/A   Clear
11:55 PM 80.6 °F 86.2 °F 75.2 °F 84% 30.06 in 10.0 mi North - - N/A   Clear